Temperature
22 23 22 21 21 21 21 21 20 20 20 20 20 20 20 20 20 20 20 19 19 19 19 19 19 19 19 19 19 19 20 20 20 20 20 20 19 19 18 18 17 18 18
23 24 22 21 21 21 21 20 20 20 20 20 20 20 21 20 20 20 20 19 19 19 19 19 19 19 19 20 20 20 20 20 20 20 20 20 20 19 18 18 17 17 18
24 24 23 22 21 21 21 20 20 20 20 20 20 20 20 21 20 20 20 20 20 19 19 19 20 20 20 20 20 20 20 20 20 20 19 19 20 20 19 18 18 18 18
24 24 23 22 21 21 20 20 20 20 20 20 20 20 20 20 20 20 20 20 20 20 20 20 20 20 20 20 20 20 20 20 20 19 18 18 19 19 20 19 19 18 18
24 24 24 23 22 21 21 20 20 20 20 20 20 20 20 20 20 20 20 20 20 20 20 20 20 20 20 20 20 20 20 20 20 20 19 18 18 19 19 20 19 19 19
23 24 24 23 22 22 21 21 20 20 20 20 20 20 20 20 20 20 20 20 20 20 20 20 20 20 20 20 20 20 20 20 20 20 19 19 19 19 19 19 19 19 19
22 24 24 23 23 22 21 21 21 20 20 20 20 20 20 20 20 20 20 20 20 19 19 19 19 19 19 19 19 19 19 20 20 20 19 19 19 19 19 19 19 19 19
23 23 24 23 23 22 22 21 21 21 20 20 20 20 20 20 20 20 20 20 19 19 19 19 19 19 19 19 19 19 19 19 19 19 19 19 19 19 18 18 18 18 18
24 23 24 23 23 23 22 22 21 21 21 21 20 20 20 20 20 20 20 20 20 19 19 19 19 19 19 19 19 19 19 19 19 19 18 18 19 19 18 18 18 18 18
24 23 24 24 23 23 22 22 22 21 21 21 21 20 20 20 20 20 20 20 19 19 19 19 19 19 19 19 19 19 19 19 19 19 19 19 19 18 18 18 18 18 18
25 23 23 22 23 22 22 22 22 21 21 21 21 20 20 20 20 20 19 19 19 19 19 19 19 19 19 19 19 19 19 19 19 19 19 19 19 19 18 18 18 18 18
25 24 23 22 22 21 21 21 21 21 21 21 20 20 20 20 19 19 19 19 19 19 19 19 19 19 19 19 19 19 18 19 19 18 19 19 19 19 19 18 18 18 18
25 25 24 23 22 22 22 21 21 20 20 20 20 19 19 19 19 19 19 19 19 19 19 19 19 19 19 19 18 18 18 18 18 18 19 19 19 19 18 18 18 18 18
25 24 24 24 23 22 22 22 21 20 20 20 20 19 19 19 19 19 19 19 19 19 19 18 18 18 18 18 18 18 18 18 18 18 18 19 18 18 18 18 18 18 18
25 24 24 23 23 22 21 21 21 21 20 20 20 19 19 19 19 19 19 19 19 19 18 18 18 18 18 18 18 18 18 18 18 18 18 18 19 18 18 19 19 19 19
25 24 24 23 22 22 21 21 20 20 20 20 20 19 19 19 19 19 19 19 19 19 19 19 19 18 18 19 19 18 18 18 18 19 19 18 18 19 19 19 19 19 19
25 24 23 22 21 21 21 20 20 20 20 20 20 19 19 19 19 19 18 18 18 18 18 18 18 18 18 18 18 18 18 18 18 19 19 19 19 19 19 19 19 19 19
24 23 23 22 21 21 20 20 20 20 20 20 19 19 19 18 18 18 18 18 18 18 18 18 18 18 18 17 18 18 18 18 18 19 19 19 19 19 19 19 19 19 19
24 23 22 22 21 21 20 20 20 20 20 20 19 19 18 18 18 17 17 17 17 17 17 17 17 17 17 17 17 17 18 18 18 18 19 19 19 19 19 18 18 19 19
24 23 22 21 21 20 20 20 20 20 20 20 20 19 19 18 18 17 17 17 17 17 17 17 17 17 17 17 17 17 18 18 18 18 18 19 19 19 18 18 18 18 19
22 22 22 21 21 20 20 20 20 20 20 20 20 19 19 18 17 17 17 16 16 16 16 16 16 16 16 16 16 17 17 18 18 19 19 19 19 19 19 18 18 18 18
21 21 21 21 21 21 21 21 21 21 20 20 20 19 19 18 17 17 16 16 16 16 16 15 15 15 15 15 15 16 16 17 18 19 19 19 19 19 18 18 18 18 18
18 19 20 20 20 20 20 20 20 20 20 20 20 19 19 18 17 17 16 16 15 16 15 15 15 15 15 15 15 15 16 17 18 18 19 19 19 19 19 19 18 18 18
18 19 20 20 20 20 20 20 20 20 20 20 20 19 19 18 18 17 16 16 16 16 15 15 15 15 15 15 15 15 15 15 15 16 17 18 19 19 19 19 18 19 19
17 18 19 19 19 19 19 19 19 19 19 20 20 19 19 18 18 17 16 16 16 16 15 15 16 15 15 15 15 15 15 15 15 15 15 17 18 18 19 19 19 18 18
16 17 18 18 18 18 18 18 18 18 18 18 19 19 18 18 18 17 17 16 16 16 16 16 16 15 15 15 15 14 14 14 15 15 15 16 16 17 18 18 18 18 18
Wind_Speed
19 19 21 16 14 13 15 17 18 16 14 13 12 11 10 10 9 10 10 11 12 12 12 11 10 10 9 9 9 9 9 9 9 10 11 12 11 10 9 8 7 14 14
22 21 21 17 15 15 15 17 18 16 15 13 12 11 10 9 9 8 9 9 11 11 10 10 9 9 9 8 8 7 7 6 6 7 9 11 10 8 7 6 7 13 12
22 21 20 17 15 15 15 16 16 16 15 13 12 11 10 9 8 8 8 8 8 8 7 7 7 8 7 7 6 6 5 4 2 4 7 10 12 9 7 7 11 12 10
21 20 19 19 16 16 16 15 15 15 15 14 12 11 11 9 8 7 7 7 7 7 6 5 6 6 6 6 5 4 3 2 3 5 9 7 12 13 10 6 7 7 8
20 19 21 20 18 16 16 15 15 15 14 13 12 11 11 10 8 7 7 7 6 6 6 5 5 5 5 4 4 3 2 3 6 9 12 6 12 16 13 9 6 6 6
20 20 21 20 18 17 16 15 14 14 13 12 12 11 10 10 9 8 7 6 6 6 5 5 5 5 4 4 4 4 4 6 8 11 13 5 14 16 14 10 8 7 7
19 19 21 20 18 17 16 15 14 13 12 12 11 11 10 9 8 8 7 7 7 7 7 7 7 7 8 7 7 7 8 8 10 13 13 6 15 19 16 13 10 9 9
20 19 20 19 18 16 15 15 14 13 12 12 11 11 10 10 9 9 9 9 9 9 9 9 9 9 10 10 11 11 11 12 12 13 14 8 18 22 19 16 14 12 12
22 20 17 18 17 16 16 15 15 14 14 13 13 12 12 12 11 11 12 12 11 11 11 11 11 12 12 12 13 13 14 15 14 13 14 9 19 23 20 18 16 15 14
20 20 17 17 17 16 15 16 15 14 14 13 13 13 13 13 13 15 15 16 15 15 14 14 14 14 14 15 15 16 16 15 15 16 15 13 21 23 21 19 18 17 15
17 19 18 18 16 16 16 18 17 15 15 14 14 15 14 13 15 17 20 20 20 19 18 17 17 17 16 17 20 20 18 15 16 16 17 15 23 24 22 20 18 17 17
13 17 15 17 17 15 14 16 15 14 15 16 14 16 15 15 14 15 16 24 23 22 21 20 19 18 17 15 19 24 17 17 16 14 12 16 23 24 22 20 19 17 17
13 10 13 14 15 12 8 11 10 11 12 16 16 14 14 12 11 12 6 12 17 18 16 17 17 15 15 13 12 11 16 15 11 9 6 15 21 22 21 20 19 18 18
15 12 12 9 10 5 4 6 6 5 5 6 12 15 10 5 5 4 2 3 6 9 10 9 7 11 12 12 9 5 7 9 8 6 8 14 18 19 19 19 18 19 19
16 13 11 10 9 6 2 1 3 3 3 4 5 8 7 4 4 4 3 2 5 5 3 3 3 4 3 3 5 5 5 7 6 6 7 14 18 19 19 19 19 20 20
14 13 11 11 10 7 5 3 2 2 0 1 1 1 2 2 2 3 4 4 4 4 5 3 4 4 4 4 7 7 7 8 7 8 8 11 17 20 21 20 20 21 22
14 12 12 11 12 9 7 5 4 4 3 1 1 1 2 3 3 4 4 5 4 5 6 5 6 5 6 7 9 10 9 9 9 9 11 12 13 17 21 22 23 23 23
15 13 12 11 13 11 7 4 4 4 2 2 2 3 3 2 4 3 4 5 4 5 5 6 7 6 6 7 7 8 8 9 11 10 11 13 13 15 18 24 26 25 25
14 13 11 8 10 10 8 6 6 3 2 2 3 3 3 1 2 1 2 3 2 3 4 6 3 4 5 6 7 8 9 10 10 13 12 12 14 15 15 18 24 26 26
11 12 10 8 8 8 7 6 3 3 4 4 3 5 4 0 2 3 4 3 3 4 4 4 5 5 5 6 9 9 7 9 9 11 12 12 11 15 17 17 16 19 26
8 10 9 8 8 5 4 3 3 3 1 1 3 6 4 1 2 1 4 4 4 4 5 6 5 7 7 6 7 8 8 10 11 10 11 11 12 12 13 14 14 14 14
7 7 8 8 7 5 5 3 2 2 1 1 1 4 4 3 2 3 3 3 5 5 6 6 5 4 6 6 6 7 7 8 8 11 10 11 12 10 11 13 11 11 11
9 4 4 6 6 3 6 4 3 3 3 4 4 4 5 4 3 1 1 3 4 5 5 5 5 6 6 6 6 5 5 5 7 6 6 7 9 9 9 8 9 9 13
7 7 6 5 3 1 1 3 3 3 3 2 2 3 5 4 4 4 3 3 3 5 6 6 5 5 6 6 6 5 7 8 7 7 8 8 7 8 9 8 7 7 8
9 10 11 10 8 6 5 7 6 6 5 3 2 2 4 5 6 6 6 4 3 5 6 5 6 6 5 6 6 6 7 8 8 7 9 8 7 6 5 5 4 2 2
13 14 15 14 14 12 10 9 8 8 8 8 7 5 3 4 6 8 7 5 3 4 5 5 6 7 7 7 6 7 7 7 7 7 7 8 8 7 4 2 2 2 4
Wind_Direction
126 132 132 126 121 120 127 136 139 137 134 132 130 123 113 104 99 97 96 97 110 113 110 104 98 94 90 92 95 90 86 84 85 89 94 97 98 99 100 103 118 106 107
126 132 131 128 125 125 129 137 140 138 137 136 134 128 120 113 108 104 102 101 107 112 110 106 103 100 97 98 102 100 97 98 108 118 122 118 112 106 99 71 60 115 117
125 132 132 130 129 128 131 137 141 140 140 140 138 134 129 126 124 119 114 111 110 111 110 108 107 105 104 105 109 112 114 120 150 173 178 155 131 124 107 83 92 110 117
129 138 138 136 135 133 135 139 143 144 144 145 145 143 141 139 139 135 128 124 123 120 118 115 114 114 115 118 122 124 136 172 235 249 240 203 146 136 130 117 116 124 130
133 139 138 144 143 142 141 144 148 150 151 152 153 153 152 152 155 156 150 145 142 139 137 136 133 131 132 137 147 162 193 234 259 265 266 246 143 143 142 144 149 153 156
135 139 146 150 150 150 150 151 154 157 159 161 162 163 164 166 170 174 175 173 171 168 168 169 172 171 172 177 188 203 221 242 263 263 262 221 143 151 151 158 171 178 183
141 139 149 153 156 157 158 159 162 165 168 170 172 174 177 180 185 192 196 197 198 198 198 199 201 201 200 203 210 220 230 243 255 273 281 238 150 155 161 169 185 197 198
139 138 147 156 160 164 166 168 170 174 177 181 184 186 190 194 202 210 213 214 215 216 215 215 217 218 217 217 219 224 231 243 249 252 259 232 160 162 169 176 190 206 213
140 139 151 160 167 171 175 178 180 183 186 190 195 200 205 209 213 219 223 224 225 227 227 227 227 228 229 230 230 231 233 238 255 269 267 237 171 171 175 182 192 206 221
140 144 157 164 168 175 181 187 188 191 194 199 205 210 215 221 226 229 230 226 226 226 226 228 230 231 232 234 236 235 235 238 243 251 256 243 182 179 181 187 195 205 218
145 149 164 166 167 179 184 185 189 195 201 204 212 218 221 228 229 227 227 225 222 222 222 224 227 231 234 237 237 235 232 234 237 240 244 229 184 183 187 192 200 209 218
161 161 167 166 167 185 191 171 185 196 199 206 214 210 213 226 240 248 225 216 218 221 222 223 226 229 233 240 239 231 226 230 241 247 243 198 183 184 189 195 203 211 219
172 177 163 165 168 184 173 161 186 196 193 198 217 219 211 224 236 254 251 205 214 222 226 229 228 230 232 236 251 233 214 226 233 245 232 182 182 187 192 198 206 216 222
168 179 172 160 148 166 164 168 175 188 180 188 202 213 213 215 241 260 278 243 217 220 218 232 229 221 229 243 252 250 223 233 233 222 196 183 188 197 202 205 211 219 224
163 174 172 140 127 133 131 295 206 198 206 208 195 205 211 216 239 267 282 282 280 279 250 219 243 250 251 276 284 277 270 265 267 258 216 198 197 206 214 216 218 223 225
159 167 147 137 137 145 155 188 302 313 264 267 98 146 169 196 231 259 267 266 270 289 304 294 273 260 262 263 265 263 258 260 257 251 247 231 219 214 217 222 225 227 226
159 155 142 154 154 160 169 182 194 233 226 187 141 195 179 206 222 241 254 256 253 263 265 264 256 240 242 242 242 242 243 244 241 239 237 238 236 226 224 227 229 227 225
161 154 156 170 160 154 158 177 226 226 169 167 188 186 195 226 223 235 251 254 247 250 245 248 246 248 246 246 246 245 242 238 238 236 235 234 234 236 228 226 228 228 225
156 150 149 140 137 148 163 184 214 197 164 209 197 151 133 226 217 211 275 270 256 270 268 274 272 246 260 260 258 247 238 238 238 240 236 235 233 233 233 232 227 226 226
139 135 135 139 139 151 168 177 201 168 188 201 158 130 123 281 66 50 312 354 354 312 295 305 326 302 280 270 273 271 254 243 238 237 237 237 233 231 231 234 229 228 226
107 122 133 151 140 155 152 157 161 153 167 155 139 124 124 154 75 39 293 353 318 297 321 325 312 303 295 285 280 277 262 249 241 234 230 232 232 227 225 224 224 225 222
82 107 120 130 143 167 128 112 113 97 242 235 114 140 167 184 174 275 22 338 319 331 307 285 290 293 297 301 301 298 288 275 259 252 230 224 228 226 225 225 218 217 222
22 52 120 121 137 161 136 172 179 163 225 231 195 187 177 173 183 221 312 297 314 304 300 326 303 286 290 296 288 288 295 292 313 293 283 249 225 221 224 225 219 216 220
15 355 40 64 108 109 161 269 264 235 236 245 213 195 158 170 198 199 214 249 287 296 296 291 310 318 299 293 292 279 275 287 293 299 304 300 277 237 223 222 223 218 212
32 26 27 25 28 18 350 322 311 294 288 285 266 172 165 201 207 205 200 198 243 270 284 305 309 297 291 287 292 294 291 288 271 268 283 292 298 281 240 215 210 196 168
35 32 29 26 24 14 1 340 318 306 309 312 310 298 249 226 209 199 186 176 221 263 290 296 290 286 281 283 283 282 282 282 284 278 275 281 284 284 275 219 189 145 113
Height
1502 1504 1507 1510 1513 1516 1519 1521 1523 1525 1527 1528 1530 1531 1532 1533 1534 1536 1537 1538 1540 1541 1542 1543 1544 1545 1546 1547 1548 1549 1550 1550 1551 1551 1552 1553 1553 1553 1554 1554 1555 1556 1557
1501 1505 1508 1511 1514 1517 1520 1522 1524 1526 1528 1530 1531 1533 1534 1535 1536 1538 1539 1540 1541 1543 1544 1545 1546 1546 1547 1548 1549 1550 1551 1552 1552 1553 1554 1554 1555 1555 1555 1556 1556 1558 1559
1501 1506 1509 1512 1514 1517 1520 1523 1525 1527 1529 1531 1533 1534 1536 1537 1538 1539 1540 1542 1543 1544 1545 1546 1547 1548 1548 1549 1550 1551 1552 1553 1554 1554 1554 1555 1557 1557 1557 1558 1558 1559 1560
1502 1506 1510 1512 1515 1518 1521 1524 1526 1528 1530 1532 1533 1535 1537 1538 1539 1541 1542 1543 1544 1545 1546 1547 1548 1549 1549 1550 1551 1552 1552 1553 1554 1555 1555 1558 1558 1559 1559 1559 1560 1561 1561
1503 1507 1510 1513 1516 1519 1522 1524 1526 1528 1530 1532 1534 1535 1537 1538 1540 1541 1543 1544 1545 1546 1547 1548 1549 1549 1550 1550 1551 1552 1553 1554 1555 1556 1556 1558 1559 1560 1561 1561 1561 1561 1562
1504 1507 1510 1513 1516 1519 1522 1524 1526 1528 1530 1532 1534 1535 1537 1538 1540 1541 1542 1543 1544 1545 1546 1547 1548 1549 1550 1550 1551 1552 1552 1553 1554 1555 1556 1558 1559 1559 1560 1561 1562 1562 1563
1506 1507 1510 1513 1516 1518 1521 1524 1526 1528 1530 1532 1533 1535 1537 1538 1539 1541 1542 1543 1544 1544 1545 1546 1547 1548 1549 1549 1550 1551 1551 1552 1553 1554 1555 1557 1557 1558 1559 1560 1561 1562 1563
1507 1507 1511 1513 1515 1518 1520 1523 1525 1527 1529 1531 1533 1534 1536 1537 1538 1539 1540 1541 1542 1543 1544 1544 1545 1546 1547 1547 1548 1549 1549 1550 1551 1552 1553 1555 1555 1556 1557 1558 1559 1560 1561
1506 1507 1511 1513 1515 1517 1520 1522 1524 1526 1528 1530 1532 1533 1535 1536 1537 1538 1538 1539 1540 1541 1542 1542 1543 1544 1545 1545 1546 1546 1547 1548 1548 1549 1550 1552 1552 1553 1554 1555 1556 1557 1558
1505 1506 1510 1512 1515 1517 1519 1522 1524 1526 1527 1529 1530 1532 1533 1534 1535 1536 1537 1537 1538 1539 1540 1540 1541 1541 1542 1543 1543 1544 1544 1545 1545 1546 1547 1549 1550 1550 1551 1552 1553 1554 1555
1505 1505 1508 1511 1513 1516 1518 1520 1523 1525 1526 1527 1528 1530 1531 1532 1532 1533 1534 1535 1536 1537 1537 1538 1538 1539 1539 1540 1540 1540 1541 1541 1541 1542 1543 1545 1546 1547 1548 1549 1549 1550 1551
1504 1506 1507 1510 1511 1515 1518 1519 1521 1523 1524 1525 1526 1527 1528 1529 1530 1532 1532 1532 1533 1534 1534 1534 1535 1535 1536 1536 1536 1537 1537 1538 1538 1539 1540 1541 1542 1543 1544 1545 1546 1546 1547
1502 1505 1507 1510 1511 1515 1518 1518 1519 1520 1522 1523 1524 1525 1526 1527 1528 1529 1530 1529 1530 1530 1530 1530 1531 1531 1532 1532 1533 1533 1534 1535 1535 1534 1535 1536 1537 1539 1540 1541 1542 1542 1543
1498 1502 1505 1508 1509 1513 1516 1517 1519 1520 1521 1521 1521 1522 1523 1524 1525 1526 1527 1528 1528 1528 1528 1527 1527 1527 1528 1529 1530 1531 1531 1532 1532 1531 1530 1530 1532 1534 1536 1537 1537 1538 1539
1494 1498 1501 1503 1506 1508 1511 1513 1516 1518 1519 1520 1520 1520 1520 1521 1521 1523 1523 1524 1525 1525 1525 1525 1524 1524 1525 1526 1526 1527 1528 1528 1528 1528 1527 1527 1528 1530 1531 1533 1533 1534 1535
1491 1494 1497 1499 1502 1505 1507 1510 1512 1514 1515 1516 1516 1516 1516 1517 1518 1518 1519 1519 1520 1520 1520 1520 1520 1520 1520 1521 1521 1522 1522 1522 1522 1522 1522 1522 1523 1524 1526 1527 1528 1529 1530
1486 1490 1493 1496 1499 1502 1504 1506 1509 1510 1512 1512 1513 1513 1513 1514 1514 1515 1515 1515 1515 1515 1515 1515 1515 1515 1515 1515 1515 1516 1516 1516 1516 1516 1516 1516 1517 1518 1518 1520 1522 1523 1525
1481 1485 1489 1494 1496 1498 1501 1504 1506 1508 1509 1509 1510 1510 1510 1511 1511 1511 1511 1511 1511 1511 1511 1511 1511 1510 1510 1510 1511 1511 1510 1510 1509 1509 1509 1509 1510 1510 1511 1513 1515 1517 1519
1477 1480 1486 1491 1493 1496 1498 1500 1503 1505 1506 1507 1507 1508 1508 1509 1509 1509 1509 1509 1509 1508 1508 1508 1508 1507 1507 1506 1506 1505 1505 1504 1503 1503 1503 1503 1503 1503 1505 1506 1508 1510 1513
1474 1478 1483 1489 1491 1494 1496 1498 1501 1503 1504 1505 1506 1505 1506 1507 1507 1507 1507 1507 1506 1505 1505 1505 1504 1503 1503 1503 1502 1501 1500 1499 1498 1497 1497 1497 1496 1497 1498 1499 1501 1503 1505
1468 1473 1481 1488 1489 1491 1494 1497 1499 1500 1501 1503 1504 1503 1504 1505 1505 1504 1504 1503 1503 1502 1502 1501 1500 1499 1499 1499 1498 1496 1495 1494 1492 1491 1491 1491 1491 1491 1492 1493 1494 1497 1499
1466 1472 1479 1486 1490 1492 1492 1494 1496 1498 1499 1501 1502 1501 1501 1501 1501 1502 1501 1500 1499 1499 1498 1497 1496 1495 1495 1495 1495 1493 1490 1489 1487 1486 1485 1484 1485 1486 1487 1488 1489 1491 1493
1468 1471 1481 1486 1490 1493 1492 1493 1495 1496 1497 1498 1498 1498 1498 1498 1498 1498 1497 1496 1495 1495 1494 1494 1493 1492 1491 1491 1491 1491 1489 1485 1484 1481 1481 1480 1480 1480 1481 1483 1485 1485 1486
1475 1478 1484 1487 1490 1492 1492 1493 1494 1494 1495 1496 1496 1496 1495 1495 1495 1495 1494 1493 1492 1491 1491 1490 1490 1489 1488 1487 1486 1487 1486 1485 1483 1478 1476 1476 1476 1475 1476 1478 1480 1480 1481
1482 1483 1484 1487 1488 1489 1489 1490 1491 1491 1492 1493 1493 1493 1492 1492 1492 1491 1490 1489 1489 1488 1487 1487 1486 1485 1484 1483 1482 1481 1480 1480 1479 1478 1474 1473 1473 1472 1472 1473 1475 1476 1477
1485 1484 1485 1486 1485 1485 1485 1486 1488 1488 1488 1488 1489 1490 1489 1489 1488 1488 1487 1486 1485 1485 1484 1483 1482 1481 1480 1479 1478 1477 1476 1475 1474 1474 1472 1470 1469 1469 1469 1470 1470 1472 1473